Find Starlink 37519

NORAD ID: 69298 Int'l Des: 2026-119 Owner: SPXS Country: US Constellation: starlink operational
LEOCIRCULARRETROGRADE

現在のビュー

3D地球を読み込み中...

About Starlink 37519

Starlink 37519 (NORAD 69298) is a starlink constellation satellite (v2 mini) launched May 29, 2026 by SPXS of US. It operates in LEO, CIRCULAR, RETROGRADE orbit with a mass of 575.00 kg.

Starlink 37519について

説明を読み込み中...

次回通過

Passes for default location (London). Set your location on the main map for personalized predictions.

高度履歴

Loading altitude history...

軌道要素

1 69298U 26119C 26161.25003472 -.00023621 00000-0 -12285-3 0 9999
2 69298 97.2843 186.6983 0001154 92.5062 309.6075 15.80827572 2776
Epoch: Jun 10, 2026 • Age: 6 hours

現在のステータス

高度 337.0 km
速度 7.71 km/s
衛星直下点 56.65°N, 94.85°E
打ち上げ日 May 29, 2026
運用期間 11 days
タイプ internet

技術仕様

分類 Payload
質量 575.00 kg
乾燥質量 530.00 kg
総質量 575.00 kg
長さ 0.30 m
直径 4.10 m
スパン 29.00 m
形状 Box + pan
製造者 SPXS
バスタイプ Starlink V2MO
フェーズステータス In Orbit
所有者/国 SPXS/US

Most Searched